| time (UTC) | temp F | wind direction | speed MPH | gust MPH | rain 1hr in | rain 24hr in | rain mn in | humidity % | barometer mb |
| 20260904155628 | 79 | 298 | 4.0 | 4.0 | 0.00 | 0.00 | 0.00 | 68 | 1017.2 |
| 20260904154605 | 80 | 289 | 2.0 | 3.0 | 0.00 | 0.00 | 0.00 | 65 | 1017.0 |
| 20260904153541 | 81 | 310 | 2.0 | 2.0 | 0.00 | 0.00 | 0.00 | 63 | 1017.6 |
| 20260904152516 | 82 | 303 | 1.0 | 2.0 | 0.00 | 0.00 | 0.00 | 59 | 1017.5 |
| 20260904151453 | 83 | 285 | 1.0 | 3.0 | 0.00 | 0.00 | 0.00 | 56 | 1017.5 |
| 20260904150441 | 83 | 308 | 3.0 | 4.0 | 0.00 | 0.00 | 0.00 | 56 | 1017.4 |
| 20260904145421 | 84 | 283 | 2.0 | 3.0 | 0.00 | 0.00 | 0.00 | 56 | 1017.5 |
| 20260904144357 | 84 | 286 | 2.0 | 3.0 | 0.00 | 0.00 | 0.00 | 54 | 1017.5 |
| 20260904143340 | 85 | 285 | 2.0 | 4.0 | 0.00 | 0.00 | 0.00 | 54 | 1017.6 |
| 20260904142325 | 84 | 264 | 3.0 | 3.0 | 0.00 | 0.00 | 0.00 | 56 | 1017.5 |
| 20260904141300 | 84 | 283 | 2.0 | 4.0 | 0.00 | 0.00 | 0.00 | 57 | 1017.8 |
| 20260904140242 | 84 | 247 | 4.0 | 4.0 | 0.00 | 0.00 | 0.00 | 54 | 1017.4 |
| 20260904135228 | 84 | 252 | 0.0 | 2.0 | 0.00 | 0.00 | 0.00 | 55 | 1017.4 |
| 20260904134213 | 85 | 291 | 1.0 | 2.0 | 0.00 | 0.00 | 0.00 | 55 | 1017.6 |
| 20260904133140 | 85 | 245 | 2.0 | 4.0 | 0.00 | 0.00 | 0.00 | 54 | 1017.6 |
| 20260904132117 | 85 | 250 | 3.0 | 3.0 | 0.00 | 0.00 | 0.00 | 55 | 1017.7 |
| 20260904131052 | 85 | 289 | 1.0 | 2.0 | 0.00 | 0.00 | 0.00 | 57 | 1017.8 |
| 20260904130041 | 85 | 282 | 2.0 | 3.0 | 0.00 | 0.00 | 0.00 | 53 | 1017.8 |
| 20260904125021 | 84 | 258 | 1.0 | 3.0 | 0.00 | 0.00 | 0.00 | 56 | 1017.9 |
| 20260904123956 | 85 | 296 | 4.0 | 5.0 | 0.00 | 0.00 | 0.00 | 50 | 1018.1 |
| 20260904122940 | 84 | 290 | 2.0 | 4.0 | 0.00 | 0.00 | 0.00 | 57 | 1018.0 |
| 20260904121925 | 84 | 266 | 2.0 | 5.0 | 0.00 | 0.00 | 0.00 | 52 | 1018.2 |
| 20260904120900 | 85 | 283 | 2.0 | 3.0 | 0.00 | 0.00 | 0.00 | 52 | 1018.4 |
| 20260904115841 | 84 | 261 | 4.0 | 5.0 | 0.00 | 0.00 | 0.00 | 51 | 1018.3 |
| 20260904114828 | 83 | 262 | 1.0 | 2.0 | 0.00 | 0.00 | 0.00 | 54 | 1018.4 |
| 20260904113806 | 84 | 280 | 1.0 | 2.0 | 0.00 | 0.00 | 0.00 | 57 | 1018.5 |
| 20260904112740 | 82 | 255 | 3.0 | 5.0 | 0.00 | 0.00 | 0.00 | 53 | 1018.6 |
| 20260904111717 | 83 | 294 | 0.0 | 1.0 | 0.00 | 0.00 | 0.00 | 55 | 1018.6 |
| 20260904110653 | 83 | 286 | 0.0 | 1.0 | 0.00 | 0.00 | 0.00 | 55 | 1018.8 |
| 20260904105640 | 83 | 303 | 2.0 | 5.0 | 0.00 | 0.00 | 0.00 | 55 | 1019.1 |
| 20260904104622 | 82 | 233 | 1.0 | 2.0 | 0.00 | 0.00 | 0.00 | 55 | 1019.2 |
| 20260904103557 | 81 | 254 | 3.0 | 5.0 | 0.00 | 0.00 | 0.00 | 53 | 1019.1 |
| 20260904102540 | 81 | 253 | 4.0 | 6.0 | 0.00 | 0.00 | 0.00 | 54 | 1019.3 |
| 20260904101525 | 82 | 268 | 1.0 | 2.0 | 0.00 | 0.00 | 0.00 | 55 | 1019.4 |
| 20260904100516 | 81 | 264 | 2.0 | 3.0 | 0.00 | 0.00 | 0.00 | 54 | 1019.5 |
| 20260904095508 | 80 | 246 | 2.0 | 3.0 | 0.00 | 0.00 | 0.00 | 55 | 1019.5 |
| 20260904094446 | 81 | 266 | 1.0 | 3.0 | 0.00 | 0.00 | 0.00 | 57 | 1019.7 |
| 20260904093437 | 80 | 265 | 1.0 | 3.0 | 0.00 | 0.00 | 0.00 | 55 | 1019.9 |
| 20260904092413 | 80 | 288 | 0.0 | 0.0 | 0.00 | 0.00 | 0.00 | 57 | 1019.8 |
| 20260904091349 | 78 | 259 | 0.0 | 1.0 | 0.00 | 0.00 | 0.00 | 59 | 1019.9 |
| 20260904090340 | 80 | 286 | 0.0 | 0.0 | 0.00 | 0.00 | 0.00 | 55 | 1019.8 |
| 20260904085333 | 77 | 286 | 0.0 | 0.0 | 0.00 | 0.00 | 0.00 | 57 | 1019.7 |
| 20260904084309 | 76 | 286 | 0.0 | 0.0 | 0.00 | 0.00 | 0.00 | 56 | 1019.9 |
| 20260904083301 | 75 | 285 | 0.0 | 0.0 | 0.00 | 0.00 | 0.00 | 61 | 1019.7 |
| 20260904083251 | 75 | 283 | 0.0 | 0.0 | 0.00 | 0.00 | 0.00 | 61 | 1019.7 |
| 20260904082341 | 75 | 284 | 0.0 | 0.0 | 0.00 | 0.00 | 0.00 | 59 | 1019.9 |
| 20260904081317 | 73 | 285 | 0.0 | 0.0 | 0.00 | 0.00 | 0.00 | 61 | 1019.6 |
| 20260904080252 | 74 | 283 | 0.0 | 0.0 | 0.00 | 0.00 | 0.00 | 63 | 1019.8 |
| 20260904075242 | 74 | 294 | 0.0 | 0.0 | 0.00 | 0.00 | 0.00 | 58 | 1019.6 |
| 20260904074220 | 75 | 295 | 0.0 | 0.0 | 0.00 | 0.00 | 0.00 | 58 | 1019.6 |
| 20260904073212 | 74 | 295 | 0.0 | 0.0 | 0.00 | 0.00 | 0.00 | 62 | 1019.8 |
| 20260904073157 | 74 | 295 | 0.0 | 0.0 | 0.00 | 0.00 | 0.00 | 58 | 1019.8 |
| 20260904071741 | 70 | 293 | 0.0 | 0.0 | 0.00 | 0.00 | 0.00 | 64 | 1019.5 |
| 20260904070725 | 68 | 293 | 0.0 | 0.0 | 0.00 | 0.00 | 0.00 | 69 | 1019.7 |
| 20260904065701 | 66 | 293 | 0.0 | 0.0 | 0.00 | 0.00 | 0.00 | 71 | 1019.9 |
| 20260904064640 | 66 | 293 | 0.0 | 0.0 | 0.00 | 0.00 | 0.00 | 71 | 1019.9 |
| 20260904063629 | 65 | 293 | 0.0 | 0.0 | 0.00 | 0.00 | 0.00 | 73 | 1020.0 |
| 20260904062604 | 63 | 293 | 0.0 | 0.0 | 0.00 | 0.00 | 0.00 | 77 | 1019.7 |
| 20260904061541 | 63 | 293 | 0.0 | 0.0 | 0.00 | 0.00 | 0.00 | 72 | 1019.9 |
| 20260904060517 | 61 | 295 | 0.0 | 0.0 | 0.00 | 0.00 | 0.00 | 76 | 1019.9 |
| 20260904055453 | 59 | 304 | 0.0 | 0.0 | 0.00 | 0.00 | 0.00 | 79 | 1019.8 |
| 20260904054441 | 58 | 303 | 0.0 | 0.0 | 0.00 | 0.00 | 0.00 | 79 | 1020.0 |
| 20260904053420 | 58 | 297 | 0.0 | 0.0 | 0.00 | 0.00 | 0.00 | 78 | 1019.8 |
| 20260904052357 | 59 | 306 | 0.0 | 0.0 | 0.00 | 0.00 | 0.00 | 78 | 1019.9 |
| 20260904051341 | 58 | 305 | 0.0 | 0.0 | 0.00 | 0.00 | 0.00 | 78 | 1019.8 |
| 20260904050325 | 59 | 296 | 1.0 | 1.0 | 0.00 | 0.00 | 0.00 | 77 | 1019.8 |
| 20260904045302 | 59 | 296 | 1.0 | 1.0 | 0.00 | 0.00 | 0.00 | 75 | 1019.7 |
| 20260904044241 | 59 | 297 | 0.0 | 1.0 | 0.00 | 0.00 | 0.00 | 76 | 1019.6 |
| 20260904043229 | 58 | 296 | 2.0 | 2.0 | 0.00 | 0.00 | 0.00 | 78 | 1019.7 |
| 20260904042205 | 58 | 305 | 0.0 | 0.0 | 0.00 | 0.00 | 0.00 | 78 | 1019.5 |
| 20260904041140 | 59 | 296 | 0.0 | 0.0 | 0.00 | 0.00 | 0.00 | 79 | 1019.5 |
| 20260904040117 | 59 | 304 | 2.0 | 2.0 | 0.00 | 0.00 | 0.00 | 77 | 1019.5 |
| 20260904035053 | 59 | 304 | 1.0 | 1.0 | 0.00 | 0.00 | 0.00 | 77 | 1019.5 |
| 20260904034040 | 59 | 297 | 0.0 | 0.0 | 0.00 | 0.00 | 0.00 | 80 | 1019.5 |
| 20260904033021 | 59 | 304 | 1.0 | 1.0 | 0.00 | 0.00 | 0.00 | 78 | 1019.7 |
| 20260904031957 | 59 | 303 | 1.0 | 1.0 | 0.00 | 0.00 | 0.00 | 80 | 1019.6 |
| 20260904030940 | 60 | 339 | 0.0 | 0.0 | 0.00 | 0.00 | 0.00 | 81 | 1019.5 |
| 20260904025924 | 60 | 288 | 1.0 | 1.0 | 0.00 | 0.00 | 0.00 | 80 | 1019.5 |
| 20260904024900 | 60 | 306 | 1.0 | 1.0 | 0.00 | 0.00 | 0.00 | 77 | 1019.8 |
| 20260904023840 | 59 | 314 | 0.0 | 0.0 | 0.00 | 0.00 | 0.00 | 82 | 1019.7 |
| 20260904022828 | 60 | 316 | 0.0 | 0.0 | 0.00 | 0.00 | 0.00 | 83 | 1019.7 |
| 20260904021805 | 60 | 297 | 1.0 | 2.0 | 0.00 | 0.00 | 0.00 | 81 | 1019.6 |
| 20260904020740 | 61 | 320 | 1.0 | 1.0 | 0.00 | 0.00 | 0.00 | 83 | 1019.7 |
| 20260904015716 | 61 | 304 | 2.0 | 2.0 | 0.00 | 0.00 | 0.00 | 82 | 1019.5 |
| 20260904014652 | 59 | 305 | 0.0 | 0.0 | 0.00 | 0.00 | 0.00 | 86 | 1019.7 |
| 20260904013642 | 60 | 288 | 0.0 | 0.0 | 0.00 | 0.00 | 0.00 | 85 | 1020.0 |
| 20260904012621 | 61 | 297 | 0.0 | 0.0 | 0.00 | 0.00 | 0.00 | 82 | 1019.7 |
| 20260904011558 | 61 | 297 | 0.0 | 0.0 | 0.00 | 0.00 | 0.00 | 83 | 1019.7 |
| 20260904010540 | 61 | 297 | 0.0 | 0.0 | 0.00 | 0.00 | 0.00 | 85 | 1019.5 |
| 20260904005525 | 61 | 296 | 0.0 | 0.0 | 0.00 | 0.00 | 0.00 | 85 | 1019.7 |
| 20260904004501 | 62 | 297 | 2.0 | 3.0 | 0.00 | 0.00 | 0.00 | 85 | 1019.6 |
| 20260904003437 | 61 | 304 | 0.0 | 0.0 | 0.00 | 0.00 | 0.00 | 87 | 1019.9 |
| 20260904002414 | 61 | 304 | 2.0 | 2.0 | 0.00 | 0.00 | 0.00 | 86 | 1019.8 |
| 20260904001350 | 62 | 304 | 1.0 | 1.0 | 0.00 | 0.00 | 0.00 | 85 | 1019.9 |
| 20260904000340 | 62 | 304 | 2.0 | 3.0 | 0.00 | 0.00 | 0.00 | 86 | 1020.3 |
| 20260903235316 | 62 | 304 | 1.0 | 1.0 | 0.00 | 0.00 | 0.00 | 86 | 1020.1 |
| 20260903234252 | 62 | 304 | 2.0 | 2.0 | 0.00 | 0.00 | 0.00 | 87 | 1020.2 |
| 20260903233239 | 62 | 305 | 1.0 | 2.0 | 0.00 | 0.00 | 0.00 | 89 | 1020.2 |
| 20260903232221 | 62 | 297 | 1.0 | 2.0 | 0.00 | 0.00 | 0.00 | 87 | 1020.2 |
| 20260903231156 | 62 | 297 | 2.0 | 2.0 | 0.00 | 0.00 | 0.00 | 87 | 1020.0 |
| 20260903230140 | 63 | 298 | 0.0 | 0.0 | 0.00 | 0.00 | 0.00 | 87 | 1020.1 |
| 20260903225124 | 63 | 297 | 2.0 | 2.0 | 0.00 | 0.00 | 0.00 | 86 | 1020.2 |
| 20260903224101 | 63 | 300 | 1.0 | 2.0 | 0.00 | 0.00 | 0.00 | 85 | 1020.0 |
| 20260903223037 | 63 | 323 | 2.0 | 3.0 | 0.00 | 0.00 | 0.00 | 87 | 1020.2 |
| 20260903222013 | 63 | 290 | 0.0 | 1.0 | 0.00 | 0.00 | 0.00 | 86 | 1019.9 |
| 20260903221005 | 63 | 320 | 1.0 | 2.0 | 0.00 | 0.00 | 0.00 | 85 | 1020.2 |
| 20260903215943 | 63 | 291 | 1.0 | 1.0 | 0.00 | 0.00 | 0.00 | 85 | 1020.0 |
| 20260903214933 | 63 | 290 | 0.0 | 0.0 | 0.00 | 0.00 | 0.00 | 86 | 1019.9 |
| 20260903213909 | 64 | 291 | 2.0 | 3.0 | 0.00 | 0.00 | 0.00 | 85 | 1020.1 |
| 20260903212845 | 64 | 291 | 0.0 | 0.0 | 0.00 | 0.00 | 0.00 | 85 | 1019.8 |
| 20260903211837 | 64 | 291 | 2.0 | 3.0 | 0.00 | 0.00 | 0.00 | 84 | 1019.9 |
| 20260903210829 | 64 | 291 | 1.0 | 2.0 | 0.00 | 0.00 | 0.00 | 85 | 1019.7 |
| 20260903205821 | 64 | 290 | 0.0 | 0.0 | 0.00 | 0.00 | 0.00 | 86 | 1020.0 |
| 20260903204813 | 65 | 300 | 2.0 | 2.0 | 0.00 | 0.00 | 0.00 | 83 | 1019.8 |
| 20260903203805 | 64 | 299 | 1.0 | 2.0 | 0.00 | 0.00 | 0.00 | 85 | 1019.7 |
| 20260903203753 | 64 | 299 | 1.0 | 2.0 | 0.00 | 0.00 | 0.00 | 85 | 1019.8 |
| 20260903203744 | 65 | 299 | 1.0 | 2.0 | 0.00 | 0.00 | 0.00 | 85 | 1019.8 |
| 20260903202204 | 65 | 299 | 2.0 | 3.0 | 0.00 | 0.00 | 0.00 | 82 | 1019.8 |
| 20260903201157 | 65 | 318 | 2.0 | 3.0 | 0.00 | 0.00 | 0.00 | 82 | 1019.8 |
| 20260903200149 | 66 | 291 | 2.0 | 2.0 | 0.00 | 0.00 | 0.00 | 81 | 1020.0 |
| 20260903195140 | 66 | 290 | 1.0 | 2.0 | 0.00 | 0.00 | 0.00 | 81 | 1019.9 |
| 20260903194117 | 66 | 317 | 1.0 | 2.0 | 0.00 | 0.00 | 0.00 | 82 | 1019.9 |
| 20260903193053 | 67 | 290 | 2.0 | 2.0 | 0.00 | 0.00 | 0.00 | 80 | 1019.9 |
| 20260903192039 | 67 | 289 | 2.0 | 3.0 | 0.00 | 0.00 | 0.00 | 80 | 1019.8 |
| 20260903191022 | 67 | 291 | 2.0 | 2.0 | 0.00 | 0.00 | 0.00 | 79 | 1019.7 |
| 20260903185958 | 68 | 291 | 2.0 | 2.0 | 0.00 | 0.00 | 0.00 | 79 | 1019.8 |
| 20260903184940 | 68 | 291 | 2.0 | 2.0 | 0.00 | 0.00 | 0.00 | 79 | 1019.5 |
| 20260903183925 | 68 | 290 | 2.0 | 3.0 | 0.00 | 0.00 | 0.00 | 79 | 1019.3 |
| 20260903182902 | 68 | 288 | 2.0 | 2.0 | 0.00 | 0.00 | 0.00 | 78 | 1019.1 |
| 20260903181837 | 69 | 302 | 2.0 | 2.0 | 0.00 | 0.00 | 0.00 | 78 | 1018.8 |
| 20260903180813 | 69 | 290 | 1.0 | 2.0 | 0.00 | 0.00 | 0.00 | 80 | 1018.8 |
| 20260903175749 | 70 | 298 | 2.0 | 3.0 | 0.00 | 0.00 | 0.00 | 78 | 1018.6 |
| 20260903174740 | 70 | 307 | 2.0 | 3.0 | 0.00 | 0.00 | 0.00 | 76 | 1018.6 |
| 20260903173717 | 71 | 290 | 0.0 | 0.0 | 0.00 | 0.00 | 0.00 | 79 | 1018.3 |
| 20260903172654 | 72 | 300 | 3.0 | 4.0 | 0.00 | 0.00 | 0.00 | 75 | 1018.2 |
| 20260903171645 | 72 | 302 | 4.0 | 4.0 | 0.00 | 0.00 | 0.00 | 74 | 1018.4 |
| 20260903170540 | 73 | 307 | 3.0 | 3.0 | 0.00 | 0.00 | 0.00 | 75 | 1018.1 |
| 20260903165525 | 75 | 303 | 3.0 | 3.0 | 0.00 | 0.00 | 0.00 | 74 | 1018.4 |
| 20260903164502 | 75 | 308 | 2.0 | 3.0 | 0.00 | 0.00 | 0.00 | 72 | 1018.3 |
| 20260903163438 | 76 | 312 | 2.0 | 3.0 | 0.00 | 0.00 | 0.00 | 70 | 1018.1 |
| 20260903162414 | 75 | 309 | 3.0 | 3.0 | 0.00 | 0.00 | 0.00 | 71 | 1018.2 |
| 20260903161350 | 76 | 303 | 2.0 | 3.0 | 0.00 | 0.00 | 0.00 | 73 | 1018.1 |